Location: Unspecified
(0.0000°N, 0.0000°E)
Time: 00:55:27
(UTC+00:00)

Envisat - Pass Details

Date: 14 January 2021
Orbit: 764 x 766 km, 98.1° (Epoch: 16 January)

Event Time Altitude Azimuth Distance (km) Brightness Sun altitude
Rises 04:55:38 0° 25° (NNE) 3,214 6.3 -17.1°
Reaches altitude 10° 04:58:02 10° 32° (NNE) 2,291 5.6 -16.5°
Maximum altitude 05:02:47 41° 102° (ESE) 1,091 4.4 -15.4°
Drops below altitude 10° 05:07:32 10° 172° (S) 2,301 5.9 -14.3°
Sets 05:09:57 0° 179° (S) 3,230 6.6 -13.8°
